Flag for Malaysia Weather past 2 weeks in Langkawi, Malaysia

Now
84 °F

Partly cloudy.


Feels Like: 94 °F
Forecast: 78 / 85 °F
Wind: 6 mph from Northwest

Location: Langkawi

Current Time: Jul 5, 2015 at 6:34:03 AM

Latest Report: Jul 5, 2015 at 5:00 AM


Visibility: N/A

Pressure: 29.77 "Hg

Humidity: 79%

Dew point: 77 °F

Location of LangkawiLocation

Historic Weather in Langkawi — Graph

°F

Langkawi temperature yesterday

Maximum temperature yesterday: 88 °F (at 10:00 AM)
Minimum temperature yesterday: 77 °F (at 5:00 AM)
Average temperature yesterday: 84 °F

Past Weeks' High & Low Weather Summary

 TemperatureHumidityPressure
High91 °F (Jun 26, 2:00 PM)94% (Jun 20, 10:00 AM)29.98 "Hg (Jun 20, 10:00 AM)
Low73 °F (Jun 20, 10:00 AM)67% (Jun 23, 3:00 PM)29.74 "Hg (Jun 20, 6:00 PM)
Average84 °F83%29.84 "Hg
* Reported Jun 20 4:00 AM — Jul 5 4:00 AM, Langkawi, Weather by CustomWeather, © 2015

Note: Actual official high and low records may vary slightly from our data, if they occured in-between our weather recording intervals... More about our weather records

Advertising

Langkawi weather history for previous 24 hours

 ConditionsComfort  
Time TempWeatherWind HumidityBarometerVisibility
4:00 AM
Sun, Jul 5
84 °FPartly cloudy.7 mph84%29.80 "HgN/A
3:00 AM84 °FPartly cloudy.7 mph84%29.80 "HgN/A
2:00 AM86 °FPartly cloudy.8 mph79%29.83 "HgN/A
12:00 AM86 °FPartly cloudy.9 mph75%29.83 "HgN/A
11:00 PM
Sat, Jul 4
86 °FPartly cloudy.8 mph79%29.83 "HgN/A
10:00 PM86 °FPartly cloudy.7 mph79%29.83 "HgN/A
9:00 PM86 °FPassing clouds.9 mph79%29.80 "HgN/A
8:00 PM86 °FPassing clouds.7 mph79%29.77 "HgN/A
7:00 PM86 °FBroken clouds.8 mph79%29.77 "HgN/A
6:00 PM86 °FBroken clouds.8 mph79%29.77 "HgN/A
5:00 PM86 °FBroken clouds.9 mph79%29.77 "HgN/A
4:00 PM88 °FBroken clouds.9 mph79%29.77 "HgN/A
3:00 PM82 °FThunderstorms. Broken clouds.8 mph84%29.80 "Hg4 mi
2:00 PM86 °FPartly sunny.8 mph79%29.83 "HgN/A
1:00 PM86 °FSprinkles. Partly sunny.10 mph79%29.83 "Hg6 mi
12:00 PM86 °FPartly sunny.9 mph79%29.83 "HgN/A
11:00 AM86 °FBroken clouds.7 mph79%29.83 "HgN/A
10:00 AM88 °FBroken clouds.8 mph75%29.83 "HgN/A
9:00 AM86 °FBroken clouds.8 mph79%29.83 "HgN/A
8:00 AM84 °FPartly sunny.7 mph84%29.83 "HgN/A
7:00 AM82 °FLight rain. Mostly cloudy.6 mph84%29.83 "HgN/A
6:00 AM79 °FLight rain. Partly cloudy.3 mph89%29.80 "HgN/A
Weather by CustomWeather, © 2015

See weather overviewHow to use our weather pages